Location: Dal�� Lhota
(48.7500°N, 14.0167°E)
Time: 18:24:14
(UTC+00:00)

Transit 2A - Pass Details

Date: 01 August 2021
Orbit: 594 x 964 km, 66.7° (Epoch: 26 September)

Event Time Altitude Azimuth Distance (km) Brightness Sun altitude
Rises 12:11:38 0° 327° (NNW) 3,150 9.0 56.7°
Reaches altitude 10° 12:14:13 10° 339° (NNW) 2,288 8.4 56.5°
Maximum altitude 12:18:47 29° 39° (NE) 1,450 7.5 56.2°
Drops below altitude 10° 12:23:45 10° 99° (E) 2,498 8.6 55.7°
Sets 12:26:40 0° 110° (ESE) 3,492 9.3 55.5°
